EW5196 Weather Reports


Display with metric or nautical units.
time (UTC)temp
F
wind
direction
speed
MPH
gust
MPH
rain 1hr
in
rain 24hr
in
rain mn
in
humidity
%
barometer
mb
20260504212109 77 186 0.0 2.0 0.00 0.00 0.00 30 1012.8
20260504211606 77 198 2.0 2.0 0.00 0.00 0.00 31 1013.0
20260504211103 77 139 5.0 5.0 0.00 0.00 0.00 31 1013.1
20260504210601 77 173 1.0 3.0 0.00 0.00 0.00 30 1013.0
20260504210057 78 79 0.0 3.0 0.00 0.00 0.00 32 1013.0
20260504205555 79 86 0.0 3.0 0.00 0.00 0.00 32 1013.0
20260504205052 78 96 2.0 3.0 0.00 0.00 0.00 30 1012.8
20260504204550 78 178 2.0 2.0 0.00 0.00 0.00 32 1013.0
20260504204049 78 98 1.0 3.0 0.00 0.00 0.00 31 1013.0
20260504203546 78 223 0.0 1.0 0.00 0.00 0.00 31 1013.0
20260504203044 78 175 0.0 3.0 0.00 0.00 0.00 31 1013.1
20260504202539 78 152 2.0 5.0 0.00 0.00 0.00 30 1013.3
20260504202037 78 189 1.0 5.0 0.00 0.00 0.00 31 1013.3
20260504201533 78 201 2.0 5.0 0.00 0.00 0.00 30 1013.4
20260504201032 78 45 2.0 3.0 0.00 0.00 0.00 32 1013.1
20260504200527 79 216 6.0 6.0 0.00 0.00 0.00 29 1013.3
20260504200024 78 202 2.0 2.0 0.00 0.00 0.00 30 1013.4
20260504195520 78 191 1.0 2.0 0.00 0.00 0.00 32 1013.2
20260504195017 78 164 2.0 3.0 0.00 0.00 0.00 32 1013.4
20260504194514 79 6 1.0 3.0 0.00 0.00 0.00 29 1013.5
20260504194009 79 144 4.0 5.0 0.00 0.00 0.00 29 1013.7
20260504193506 78 156 3.0 4.0 0.00 0.00 0.00 29 1013.7
20260504193005 79 125 2.0 2.0 0.00 0.00 0.00 30 1013.7
20260504192502 78 128 2.0 5.0 0.00 0.00 0.00 29 1013.8
20260504192001 78 183 2.0 2.0 0.00 0.00 0.00 28 1013.9
20260504191458 78 199 1.0 3.0 0.00 0.00 0.00 31 1014.2
20260504190953 77 161 1.0 2.0 0.00 0.00 0.00 31 1014.3
20260504190449 77 309 1.0 4.0 0.00 0.00 0.00 33 1014.2
20260504185946 77 119 0.0 4.0 0.00 0.00 0.00 32 1014.5
20260504185443 77 172 1.0 5.0 0.00 0.00 0.00 29 1014.8
20260504184939 76 157 3.0 5.0 0.00 0.00 0.00 31 1014.7
20260504184435 76 68 0.0 3.0 0.00 0.00 0.00 32 1014.8
20260504183931 76 225 0.0 3.0 0.00 0.00 0.00 31 1014.8
20260504183429 76 123 1.0 4.0 0.00 0.00 0.00 33 1014.8
20260504182926 75 201 1.0 5.0 0.00 0.00 0.00 30 1014.9
20260504182423 75 145 3.0 5.0 0.00 0.00 0.00 30 1014.9
20260504181920 75 155 3.0 4.0 0.00 0.00 0.00 31 1014.8
20260504181417 75 132 2.0 3.0 0.00 0.00 0.00 33 1015.0
20260504180916 74 125 3.0 4.0 0.00 0.00 0.00 31 1015.0
20260504180415 74 86 3.0 3.0 0.00 0.00 0.00 33 1015.1
20260504175912 73 149 0.0 3.0 0.00 0.00 0.00 34 1014.9
20260504175409 73 88 2.0 3.0 0.00 0.00 0.00 34 1015.3
20260504174907 73 156 3.0 3.0 0.00 0.00 0.00 35 1015.0
20260504174404 73 146 2.0 3.0 0.00 0.00 0.00 34 1015.0
20260504173901 73 96 0.0 2.0 0.00 0.00 0.00 34 1015.0
20260504173357 73 185 2.0 3.0 0.00 0.00 0.00 33 1015.3
20260504172855 73 83 0.0 3.0 0.00 0.00 0.00 35 1014.9
20260504172351 72 131 2.0 3.0 0.00 0.00 0.00 34 1015.0
20260504171847 72 127 1.0 3.0 0.00 0.00 0.00 33 1015.3
20260504171344 72 136 3.0 5.0 0.00 0.00 0.00 30 1015.2
20260504170842 73 140 2.0 3.0 0.00 0.00 0.00 32 1015.5
20260504170338 73 167 0.0 3.0 0.00 0.00 0.00 33 1015.5
20260504160256 71 107 2.0 4.0 0.00 0.00 0.00 34 1015.8
20260504150722 69 177 1.0 2.0 0.00 0.00 0.00 36 1016.6
20260504150219 68 137 1.0 3.0 0.00 0.00 0.00 37 1016.6
20260504141148 66 52 0.0 2.0 0.00 0.00 0.00 44 1016.9
20260504140645 65 183 0.0 3.0 0.00 0.00 0.00 45 1016.9
20260504140140 64 138 2.0 3.0 0.00 0.00 0.00 45 1017.1
20260504130609 59 144 2.0 4.0 0.00 0.00 0.00 52 1017.2
20260504130105 57 148 3.0 4.0 0.00 0.00 0.00 55 1017.4
20260504110445 48 152 2.0 3.0 0.00 0.00 0.00 81 1018.1
20260504100407 49 147 2.0 2.0 0.00 0.00 0.00 66 1017.8
20260504081800 50 151 3.0 3.0 0.00 0.00 0.00 64 1018.2
20260504081256 50 132 2.0 3.0 0.00 0.00 0.00 66 1018.2
20260504080753 49 119 2.0 3.0 0.00 0.00 0.00 65 1018.2
20260504080249 49 140 2.0 3.0 0.00 0.00 0.00 67 1018.0
20260504070217 46 152 1.0 2.0 0.00 0.00 0.00 80 1018.0
20260504060137 43 167 2.0 3.0 0.00 0.00 0.00 85 1018.2
20260504050606 42 142 2.0 2.0 0.00 0.00 0.00 86 1018.1
20260504045559 43 139 2.0 2.0 0.00 0.00 0.00 85 1018.4
20260504045054 42 149 2.0 2.0 0.00 0.00 0.00 84 1018.0
20260504044553 42 145 2.0 2.0 0.00 0.00 0.00 85 1018.1
20260504044049 42 152 2.0 2.0 0.00 0.00 0.00 86 1018.3
20260504043546 42 150 2.0 3.0 0.00 0.00 0.00 85 1018.2
20260504043043 43 146 2.0 2.0 0.00 0.00 0.00 85 1018.2
20260504042540 43 143 2.0 2.0 0.00 0.00 0.00 86 1018.1
20260504042038 43 143 2.0 3.0 0.00 0.00 0.00 86 1018.3
20260504041533 43 139 2.0 2.0 0.00 0.00 0.00 87 1018.1
20260504041029 43 160 2.0 3.0 0.00 0.00 0.00 86 1018.3
20260504040527 44 153 3.0 3.0 0.00 0.00 0.00 86 1018.2
20260504040024 44 148 2.0 3.0 0.00 0.00 0.00 84 1018.0
20260504035521 44 136 2.0 2.0 0.00 0.00 0.00 85 1018.0
20260504035017 44 135 1.0 2.0 0.00 0.00 0.00 85 1018.2
20260504034515 44 127 2.0 2.0 0.00 0.00 0.00 84 1018.1
20260504034011 44 130 2.0 2.0 0.00 0.00 0.00 81 1017.9
20260504033509 44 141 2.0 2.0 0.00 0.00 0.00 80 1018.3
20260504033007 44 140 2.0 2.0 0.00 0.00 0.00 80 1018.0
20260504032503 44 157 2.0 2.0 0.00 0.00 0.00 81 1018.2
20260504032000 44 149 2.0 2.0 0.00 0.00 0.00 81 1018.1
20260504031456 44 137 2.0 3.0 0.00 0.00 0.00 80 1018.2
20260504030953 44 140 2.0 2.0 0.00 0.00 0.00 80 1018.1
20260504030451 45 149 3.0 3.0 0.00 0.00 0.00 81 1018.1
20260504025946 45 143 2.0 3.0 0.00 0.00 0.00 80 1018.0
20260504025443 45 145 2.0 2.0 0.00 0.00 0.00 79 1017.9
20260504024940 45 140 2.0 3.0 0.00 0.00 0.00 80 1018.2
20260504024437 45 142 2.0 3.0 0.00 0.00 0.00 79 1018.0
20260504023934 45 140 2.0 2.0 0.00 0.00 0.00 80 1018.1
20260504023431 46 145 2.0 2.0 0.00 0.00 0.00 80 1018.0
20260504022926 46 135 2.0 2.0 0.00 0.00 0.00 79 1018.1
20260504022423 46 138 2.0 2.0 0.00 0.00 0.00 79 1017.8
20260504021920 46 132 2.0 3.0 0.00 0.00 0.00 77 1018.0
20260504021417 46 137 2.0 2.0 0.00 0.00 0.00 78 1018.0
20260504020914 46 129 2.0 2.0 0.00 0.00 0.00 78 1017.9
20260504020411 47 136 2.0 2.0 0.00 0.00 0.00 78 1018.0
20260504015907 47 123 1.0 2.0 0.00 0.00 0.00 77 1017.7
20260504015403 47 136 2.0 2.0 0.00 0.00 0.00 76 1017.6
20260504014859 47 132 1.0 2.0 0.00 0.00 0.00 74 1017.7
20260504014355 48 136 2.0 2.0 0.00 0.00 0.00 74 1017.8
20260504013853 48 123 2.0 2.0 0.00 0.00 0.00 77 1017.6
20260504013351 48 129 1.0 2.0 0.00 0.00 0.00 75 1017.9
20260504012847 48 130 1.0 2.0 0.00 0.00 0.00 72 1017.8
20260504012345 49 132 2.0 2.0 0.00 0.00 0.00 73 1017.7
20260504011842 49 134 2.0 2.0 0.00 0.00 0.00 74 1017.7
20260504011339 49 134 2.0 2.0 0.00 0.00 0.00 71 1017.8
20260504010835 50 137 2.0 3.0 0.00 0.00 0.00 71 1017.4
20260504010330 50 129 2.0 2.0 0.00 0.00 0.00 71 1017.6
20260504005827 50 130 2.0 3.0 0.00 0.00 0.00 71 1017.8
20260504005324 51 145 2.0 2.0 0.00 0.00 0.00 71 1017.6
20260504004822 51 134 2.0 2.0 0.00 0.00 0.00 70 1017.5
20260504004319 52 134 1.0 2.0 0.00 0.00 0.00 67 1017.5
20260504003815 52 143 2.0 2.0 0.00 0.00 0.00 66 1017.4
20260504003313 53 141 2.0 2.0 0.00 0.00 0.00 67 1017.5
20260504002809 53 137 1.0 2.0 0.00 0.00 0.00 62 1017.4
20260504002306 54 140 2.0 2.0 0.00 0.00 0.00 58 1017.5
20260504001804 54 148 1.0 2.0 0.00 0.00 0.00 61 1017.3
20260504001301 55 142 2.0 2.0 0.00 0.00 0.00 55 1017.3
20260504000757 55 144 2.0 2.0 0.00 0.00 0.00 49 1017.3
20260504000254 56 140 2.0 2.0 0.00 0.00 0.00 59 1017.1
20260503235752 57 139 2.0 3.0 0.00 0.00 0.00 55 1017.0
20260503235249 58 139 1.0 2.0 0.00 0.00 0.00 48 1017.0
20260503234747 58 135 2.0 2.0 0.00 0.00 0.00 44 1017.1
20260503234244 59 136 1.0 2.0 0.00 0.00 0.00 47 1017.0
20260503233736 59 134 1.0 2.0 0.00 0.00 0.00 43 1016.9
20260503233232 60 141 2.0 2.0 0.00 0.00 0.00 39 1017.1
20260503232729 60 137 2.0 2.0 0.00 0.00 0.00 38 1016.9
20260503232226 61 138 2.0 2.0 0.00 0.00 0.00 42 1017.1
20260503231724 61 138 2.0 2.0 0.00 0.00 0.00 36 1017.0
20260503231220 61 137 2.0 2.0 0.00 0.00 0.00 33 1017.1
20260503230717 62 134 2.0 2.0 0.00 0.00 0.00 34 1016.9
20260503230214 62 135 2.0 3.0 0.00 0.00 0.00 33 1016.9
20260503225711 62 161 2.0 3.0 0.00 0.00 0.00 33 1016.9
20260503225211 63 139 2.0 2.0 0.00 0.00 0.00 32 1016.8
20260503224709 63 140 3.0 3.0 0.00 0.00 0.00 31 1017.0
20260503224207 63 144 2.0 2.0 0.00 0.00 0.00 31 1017.0
20260503223704 64 148 1.0 4.0 0.00 0.00 0.00 28 1017.0
20260503223201 64 170 2.0 3.0 0.00 0.00 0.00 28 1017.0
20260503222658 64 164 2.0 5.0 0.00 0.00 0.00 28 1016.9
20260503222155 65 165 2.0 3.0 0.00 0.00 0.00 28 1017.2
20260503221654 65 146 1.0 3.0 0.00 0.00 0.00 26 1017.0
20260503221151 66 137 4.0 5.0 0.00 0.00 0.00 26 1017.2
20260503220648 66 134 2.0 4.0 0.00 0.00 0.00 26 1017.0
20260503220144 65 154 2.0 3.0 0.00 0.00 0.00 29 1017.3
20260503215641 64 153 3.0 5.0 0.00 0.00 0.00 28 1017.0
20260503215137 64 142 2.0 2.0 0.00 0.00 0.00 29 1017.3
20260503214637 64 138 2.0 3.0 0.00 0.00 0.00 28 1017.3
20260503214132 64 124 3.0 5.0 0.00 0.00 0.00 27 1017.2
20260503213626 64 163 3.0 5.0 0.00 0.00 0.00 27 1017.2
20260503213121 64 129 2.0 3.0 0.00 0.00 0.00 28 1017.2
20260503212620 64 118 2.0 6.0 0.00 0.00 0.00 27 1017.2